Language: 


Des rapports , des résumés tant et plus, au choix de chacun....


Données statistiques de la station
Quotidien Rapport Septembre 11, 2017 Unités:  Anglais    Métrique   les deux
« Précédent Jour
Suivant Jour »
Quotidien Hebdomadaire Mensuel Annuel Actuel
  Haut: Bas: Moyen:
Température: 62.4 °F 32 °F 57.2 °F
Pt de rosée: 62.6 °F 53.6 °F 56.3 °F
Humidité: 98 % 0 % 94 %
Vitesse du vent: 19.9 mph 0 mph 8.4 mph
Rafales: 22.8 mph - -
Vent:- - SW
Pression: 29.5 in 29.4 in -
Précipitation: 0.87 in    
Historical Graphs
 
 
Données statistiques pour Septembre 11, 2017
Heure Température Point de rosée Pression Vent Vitesse du vent Refales Humidité Pluie (taux horaire)
00:00 59 °F 57.2 °F 29.4 in South 10.5 mph 13.9 mph 93 % 0 in
00:05 59.4 °F 57.2 °F 29.4 in WSW 8.7 mph 13.6 mph 92 % 0 in
00:10 59.4 °F 57.2 °F 29.4 in WSW 8.7 mph 15.2 mph 92 % 0 in
00:15 59.4 °F 57.2 °F 29.4 in SW 5.4 mph 15.2 mph 92 % 0 in
00:20 59.4 °F 57.2 °F 29.4 in WSW 11 mph 17 mph 92 % 0 in
00:25 59.2 °F 57.2 °F 29.4 in WSW 6 mph 17 mph 93 % 0 in
00:30 58.8 °F 57.2 °F 29.4 in WSW 8.7 mph 13.2 mph 94 % 0 in
00:35 58.6 °F 57.2 °F 29.4 in West 11 mph 20.6 mph 94 % 0 in
00:40 58.5 °F 57.2 °F 29.4 in SW 6.3 mph 20.6 mph 95 % 0.05 in
00:45 58.1 °F 57.2 °F 29.4 in SW 10.3 mph 15.4 mph 96 % 0.07 in
00:50 57.9 °F 57.2 °F 29.4 in WSW 8.7 mph 15.4 mph 97 % 0.09 in
00:55 57.9 °F 57.2 °F 29.4 in WSW 9.8 mph 17 mph 97 % 0.09 in
01:00 57.9 °F 57.2 °F 29.4 in SSW 13 mph 17 mph 98 % 0.09 in
01:05 57.9 °F 57.2 °F 29.4 in SW 9.4 mph 13.9 mph 98 % 0.09 in
01:10 57.7 °F 57.2 °F 29.4 in SSW 5.6 mph 13.9 mph 98 % 0.09 in
01:16 57.7 °F 57.2 °F 29.4 in SW 7.8 mph 9.6 mph 98 % 0.09 in
01:21 57.7 °F 57.2 °F 29.4 in SSW 6 mph 9.6 mph 98 % 0.09 in
01:26 57.6 °F 57.2 °F 29.4 in SW 8.7 mph 10.3 mph 98 % 0.09 in
01:31 57.6 °F 57.2 °F 29.4 in West 8.7 mph 10.3 mph 98 % 0.09 in
01:36 57.6 °F 57.2 °F 29.4 in SW 7.2 mph 14.1 mph 98 % 0.07 in
01:41 57.6 °F 57.2 °F 29.4 in South 7.8 mph 14.1 mph 98 % 0.02 in
01:51 57.4 °F 57.2 °F 29.4 in SW 6.3 mph 10.1 mph 97 % 0 in
01:56 57.2 °F 57.2 °F 29.4 in WSW 3.8 mph 10.7 mph 97 % 0 in
02:01 57.2 °F 57.2 °F 29.4 in SW 4.9 mph 10.7 mph 97 % 0 in
02:06 57.2 °F 57.2 °F 29.4 in West 5.8 mph 10.7 mph 97 % 0 in
02:11 57.2 °F 57.2 °F 29.4 in WSW 7.8 mph 12.5 mph 97 % 0 in
02:12 57.2 °F 57.2 °F 29.4 in SSW 6 mph 12.5 mph 97 % 0 in
02:18 57.2 °F 57.2 °F 29.4 in SW 10.7 mph 12.5 mph 97 % 0 in
02:23 57.2 °F 57.2 °F 29.4 in South 6.3 mph 12.3 mph 97 % 0 in
02:28 57.2 °F 57.2 °F 29.4 in SSW 5.8 mph 10.7 mph 97 % 0 in
02:33 57.2 °F 57.2 °F 29.4 in South 11 mph 11 mph 97 % 0 in
02:38 57.2 °F 57.2 °F 29.4 in SSW 8.1 mph 11 mph 97 % 0 in
02:43 56.8 °F 55.4 °F 29.4 in SSW 6 mph 10.1 mph 97 % 0 in
02:48 56.8 °F 55.4 °F 29.4 in WSW 8.5 mph 10.1 mph 97 % 0 in
02:53 56.8 °F 55.4 °F 29.4 in WSW 6.3 mph 9.6 mph 97 % 0 in
02:58 56.7 °F 55.4 °F 29.4 in WSW 8.1 mph 10.1 mph 97 % 0 in
03:03 32 °F 55.4 °F 29.4 in WSW 10.3 mph 11.4 mph 0 % 0 in
03:08 32 °F 55.4 °F 29.4 in SSW 7.8 mph 11.4 mph 0 % 0 in
03:13 56.3 °F 55.4 °F 29.4 in WSW 6 mph 10.3 mph 96 % 0 in
03:18 56.1 °F 55.4 °F 29.4 in SW 7.6 mph 10.7 mph 96 % 0 in
03:23 56.1 °F 55.4 °F 29.4 in SW 6.5 mph 11 mph 96 % 0 in
03:28 56.1 °F 55.4 °F 29.4 in SSW 4.3 mph 11 mph 96 % 0 in
03:33 55.8 °F 55.4 °F 29.4 in WSW 5.4 mph 8.1 mph 96 % 0 in
03:38 55.8 °F 55.4 °F 29.4 in SSW 6.3 mph 8.5 mph 96 % 0 in
03:43 55.8 °F 55.4 °F 29.4 in West 7.6 mph 11 mph 96 % 0 in
03:48 55.8 °F 55.4 °F 29.4 in WSW 10.5 mph 11 mph 96 % 0 in
03:53 55.8 °F 55.4 °F 29.4 in SW 7.6 mph 10.5 mph 96 % 0 in
03:58 55.8 °F 55.4 °F 29.4 in WSW 4.9 mph 10.5 mph 96 % 0 in
04:03 55.8 °F 55.4 °F 29.4 in SW 5.6 mph 9.8 mph 96 % 0 in
04:08 55.8 °F 55.4 °F 29.4 in WSW 6.5 mph 8.1 mph 96 % 0 in
04:13 55.8 °F 55.4 °F 29.4 in SW 7.4 mph 8.1 mph 96 % 0 in
04:18 55.8 °F 55.4 °F 29.4 in SSW 7.6 mph 8.7 mph 95 % 0 in
04:23 55.8 °F 55.4 °F 29.4 in SSW 5.6 mph 11 mph 95 % 0 in
04:28 55.6 °F 55.4 °F 29.4 in SW 7.8 mph 11 mph 95 % 0 in
04:33 55.6 °F 55.4 °F 29.4 in SW 9.6 mph 10.3 mph 95 % 0 in
04:38 55.4 °F 55.4 °F 29.4 in SSW 8.5 mph 9.6 mph 95 % 0 in
04:43 55.2 °F 55.4 °F 29.4 in SW 5.4 mph 9.6 mph 95 % 0 in
04:48 55.2 °F 55.4 °F 29.4 in SW 6 mph 8.5 mph 95 % 0 in
04:53 55 °F 55.4 °F 29.4 in Calm   7.4 mph 95 % 0 in
04:59 54.9 °F 53.6 °F 29.4 in WSW 6 mph 8.5 mph 95 % 0 in
05:04 54.9 °F 53.6 °F 29.4 in SSW 5.8 mph 10.5 mph 95 % 0 in
05:09 54.9 °F 53.6 °F 29.4 in SW 8.1 mph 10.5 mph 95 % 0 in
05:20 54.5 °F 53.6 °F 29.4 in WSW 4 mph 8.7 mph 94 % 0 in
05:21 54.5 °F 53.6 °F 29.4 in SW 8.1 mph 8.7 mph 94 % 0 in
05:26 54.3 °F 53.6 °F 29.4 in SSW 7.8 mph 8.7 mph 94 % 0 in
05:31 54.3 °F 53.6 °F 29.4 in SSW 7.8 mph 12.8 mph 94 % 0 in
05:32 54.3 °F 53.6 °F 29.4 in SSW 7.6 mph 12.8 mph 94 % 0 in
05:33 54.3 °F 53.6 °F 29.4 in NW 8.5 mph 12.8 mph 95 % 0 in
05:38 54.3 °F 53.6 °F 29.4 in SSW 10.7 mph 12.8 mph 95 % 0 in
05:43 54.3 °F 53.6 °F 29.4 in SSW 5.4 mph 11 mph 95 % 0 in
05:48 54.5 °F 55.4 °F 29.4 in West 9.6 mph 11 mph 96 % 0 in
05:53 54.7 °F 55.4 °F 29.4 in SSW 7.8 mph 10.1 mph 96 % 0 in
05:58 54.7 °F 55.4 °F 29.4 in WSW 12.3 mph 12.3 mph 96 % 0 in
06:03 54.7 °F 55.4 °F 29.4 in WSW 5.4 mph 12.3 mph 96 % 0 in
06:09 54.5 °F 55.4 °F 29.4 in SW 5.8 mph 10.7 mph 96 % 0 in
06:14 54.5 °F 55.4 °F 29.4 in SW 3.4 mph 10.7 mph 96 % 0 in
06:19 54.3 °F 53.6 °F 29.4 in WSW 7.4 mph 9.6 mph 96 % 0 in
06:24 54.3 °F 53.6 °F 29.4 in SW 6 mph 8.5 mph 96 % 0 in
06:29 54.3 °F 53.6 °F 29.4 in SSW 6.5 mph 9.8 mph 96 % 0 in
06:34 54.3 °F 53.6 °F 29.4 in WSW 8.7 mph 9.8 mph 96 % 0 in
06:39 54.3 °F 53.6 °F 29.4 in South 5.6 mph 10.7 mph 96 % 0 in
06:44 54.5 °F 55.4 °F 29.4 in SW 9.8 mph 10.7 mph 96 % 0 in
06:49 54.5 °F 55.4 °F 29.4 in SSW 6.3 mph 11.9 mph 96 % 0.01 in
06:54 54.5 °F 55.4 °F 29.4 in SSW 7.6 mph 11.9 mph 96 % 0.01 in
06:59 54.3 °F 53.6 °F 29.4 in SW 8.7 mph 12.3 mph 96 % 0.01 in
07:04 54.3 °F 53.6 °F 29.4 in SSW 8.7 mph 12.3 mph 96 % 0.01 in
07:09 54.1 °F 53.6 °F 29.4 in SSW 8.5 mph 11 mph 96 % 0.01 in
07:14 54.1 °F 53.6 °F 29.4 in WSW 5.4 mph 11 mph 96 % 0.01 in
07:19 54.1 °F 53.6 °F 29.4 in SW 6.3 mph 10.7 mph 97 % 0.01 in
07:24 54.1 °F 53.6 °F 29.4 in SSW 3.8 mph 11 mph 97 % 0.01 in
07:29 54.1 °F 53.6 °F 29.4 in SSW 6.5 mph 11 mph 97 % 0.01 in
07:34 54.1 °F 53.6 °F 29.4 in SSW 4.9 mph 10.5 mph 97 % 0.01 in
07:39 54 °F 53.6 °F 29.4 in SSW 8.5 mph 8.9 mph 97 % 0.01 in
07:45 54 °F 53.6 °F 29.4 in SSW 8.1 mph 12.3 mph 97 % 0.01 in
07:50 54 °F 53.6 °F 29.4 in SW 5.8 mph 12.3 mph 97 % 0 in
07:55 54 °F 53.6 °F 29.4 in SSW 5.6 mph 9.6 mph 97 % 0 in
08:00 54 °F 53.6 °F 29.4 in SW 7.6 mph 9.6 mph 97 % 0 in
08:05 54 °F 53.6 °F 29.4 in SW 7.4 mph 10.5 mph 97 % 0 in
08:10 54.3 °F 55.4 °F 29.4 in SSW 7.8 mph 10.5 mph 98 % 0 in
08:15 54.5 °F 55.4 °F 29.4 in SW 4.9 mph 8.5 mph 97 % 0 in
08:20 54.9 °F 55.4 °F 29.4 in WSW 5.8 mph 10.1 mph 97 % 0 in
08:25 54.9 °F 55.4 °F 29.4 in SSW 6 mph 10.5 mph 97 % 0 in
08:30 54.9 °F 55.4 °F 29.4 in SSW 7.8 mph 10.7 mph 97 % 0 in
08:35 55.4 °F 55.4 °F 29.4 in SW 9.2 mph 10.7 mph 96 % 0 in
08:40 55.4 °F 55.4 °F 29.4 in SW 9.2 mph 10.7 mph 96 % 0 in
08:45 55.8 °F 55.4 °F 29.4 in WSW 8.1 mph 12.5 mph 95 % 0 in
08:50 55.8 °F 55.4 °F 29.4 in South 10.5 mph 12.8 mph 95 % 0 in
08:55 55.8 °F 55.4 °F 29.4 in WSW 8.5 mph 12.8 mph 95 % 0 in
09:00 56.5 °F 55.4 °F 29.4 in SSW 9.2 mph 12.3 mph 94 % 0 in
09:05 56.8 °F 55.4 °F 29.4 in SW 7.4 mph 10.7 mph 92 % 0 in
09:10 57 °F 55.4 °F 29.4 in SSW 7.2 mph 13.2 mph 91 % 0 in
09:15 57 °F 55.4 °F 29.4 in SSW 10.7 mph 15.4 mph 91 % 0 in
09:20 57.6 °F 55.4 °F 29.4 in SSW 12.3 mph 15.4 mph 89 % 0 in
09:25 57.6 °F 55.4 °F 29.4 in WSW 10.5 mph 14.1 mph 89 % 0 in
09:30 57.9 °F 55.4 °F 29.4 in SW 15.4 mph 15.4 mph 89 % 0 in
09:35 57.9 °F 55.4 °F 29.4 in WSW 8.5 mph 15.4 mph 89 % 0 in
09:40 57.9 °F 55.4 °F 29.4 in SW 8.5 mph 15.4 mph 89 % 0 in
09:45 57.7 °F 55.4 °F 29.4 in SW 15.9 mph 15.9 mph 88 % 0 in
09:51 57.7 °F 55.4 °F 29.4 in SW 19.9 mph 21 mph 88 % 0 in
09:56 57.2 °F 55.4 °F 29.4 in SSW 13.2 mph 21 mph 89 % 0 in
10:01 56.8 °F 53.6 °F 29.4 in SW 10.3 mph 21 mph 90 % 0 in
10:06 56.7 °F 53.6 °F 29.4 in SW 10.7 mph 13.2 mph 90 % 0 in
10:11 57 °F 55.4 °F 29.4 in SSW 11 mph 16.8 mph 91 % 0 in
10:16 57.9 °F 55.4 °F 29.4 in South 12.1 mph 16.8 mph 91 % 0 in
10:21 58.3 °F 55.4 °F 29.4 in WSW 12.1 mph 15.4 mph 90 % 0 in
10:26 58.6 °F 55.4 °F 29.4 in SSW 9.4 mph 15.4 mph 89 % 0 in
10:31 58.6 °F 55.4 °F 29.4 in SW 10.5 mph 13.9 mph 88 % 0 in
10:36 58.6 °F 55.4 °F 29.4 in SSW 10.7 mph 16.8 mph 87 % 0 in
10:41 58.6 °F 55.4 °F 29.4 in WSW 8.1 mph 16.8 mph 87 % 0 in
10:46 59.9 °F 55.4 °F 29.4 in SW 13.2 mph 14.8 mph 86 % 0 in
10:51 60.3 °F 55.4 °F 29.4 in WSW 10.3 mph 14.8 mph 84 % 0 in
10:56 60.8 °F 55.4 °F 29.4 in WSW 17.4 mph 17.4 mph 82 % 0 in
11:01 60.1 °F 55.4 °F 29.4 in SSW 10.1 mph 20.1 mph 81 % 0 in
11:06 60.4 °F 55.4 °F 29.4 in SW 10.5 mph 20.1 mph 81 % 0 in
11:11 60.4 °F 55.4 °F 29.4 in SSW 12.8 mph 18.1 mph 81 % 0 in
11:16 61.5 °F 55.4 °F 29.4 in SW 14.8 mph 18.1 mph 79 % 0 in
11:21 61.7 °F 55.4 °F 29.4 in WSW 14.3 mph 18.1 mph 78 % 0 in
11:27 62.4 °F 55.4 °F 29.4 in SW 17.4 mph 18.6 mph 78 % 0 in
11:32 61.2 °F 55.4 °F 29.4 in SSW 14.8 mph 18.6 mph 78 % 0 in
11:37 61.3 °F 55.4 °F 29.4 in SSW 14.5 mph 16.6 mph 79 % 0 in
11:42 60.8 °F 55.4 °F 29.4 in WSW 12.8 mph 19.5 mph 80 % 0 in
11:47 60.8 °F 55.4 °F 29.4 in SW 6 mph 19.5 mph 80 % 0 in
11:52 60.4 °F 55.4 °F 29.4 in SSW 13 mph 15.2 mph 81 % 0 in
11:57 60.3 °F 55.4 °F 29.4 in SSW 13.6 mph 15.4 mph 80 % 0 in
12:02 61.2 °F 55.4 °F 29.4 in WSW 13 mph 18.1 mph 80 % 0 in
12:07 61.2 °F 55.4 °F 29.4 in SW 10.1 mph 19.5 mph 80 % 0 in
12:12 61.2 °F 55.4 °F 29.4 in South 9.8 mph 19.5 mph 80 % 0 in
12:17 61.2 °F 55.4 °F 29.4 in West 12.5 mph 15.4 mph 80 % 0 in
12:22 61.5 °F 53.6 °F 29.4 in SW 5.8 mph 20.4 mph 75 % 0 in
12:23 61.7 °F 55.4 °F 29.4 in SSW 10.7 mph 20.4 mph 78 % 0 in
12:28 61.7 °F 55.4 °F 29.4 in SSW 18.8 mph 20.4 mph 78 % 0 in
12:33 61.2 °F 53.6 °F 29.4 in WSW 17.2 mph 18.8 mph 76 % 0 in
12:38 61.2 °F 53.6 °F 29.4 in SSW 12.5 mph 22.1 mph 76 % 0.01 in
12:43 61.2 °F 53.6 °F 29.4 in West 15.4 mph 22.6 mph 76 % 0.02 in
12:48 57.9 °F 55.4 °F 29.4 in West 13.2 mph 22.8 mph 88 % 0.03 in
12:53 57.9 °F 55.4 °F 29.4 in WSW 13.2 mph 22.8 mph 89 % 0.03 in
12:58 57.9 °F 55.4 °F 29.4 in SW 10.3 mph 15.4 mph 89 % 0.03 in
13:03 57.9 °F 55.4 °F 29.4 in WSW 10.3 mph 13.4 mph 89 % 0.03 in
13:08 57.9 °F 55.4 °F 29.4 in WSW 9.8 mph 13.4 mph 89 % 0.03 in
13:14 58.8 °F 57.2 °F 29.4 in SW 15.4 mph 15.4 mph 92 % 0.03 in
13:19 59.2 °F 57.2 °F 29.4 in South 10.3 mph 17.7 mph 91 % 0.03 in
13:24 59.2 °F 55.4 °F 29.4 in SSW 10.1 mph 17.7 mph 90 % 0.03 in
13:26 59.2 °F 55.4 °F 29.4 in WSW 13.9 mph 17.7 mph 90 % 0.03 in
13:31 58.6 °F 55.4 °F 29.4 in WSW 8.1 mph 17.9 mph 90 % 0.03 in
13:36 58.5 °F 55.4 °F 29.4 in WSW 17.4 mph 17.9 mph 90 % 0.03 in
13:41 58.3 °F 55.4 °F 29.4 in SSW 10.1 mph 17.4 mph 91 % 0.02 in
13:46 58.1 °F 55.4 °F 29.4 in SSW 8.7 mph 17.4 mph 92 % 0.02 in
13:51 58.1 °F 55.4 °F 29.4 in WSW 10.1 mph 13 mph 92 % 0.03 in
13:56 57.6 °F 55.4 °F 29.4 in SW 8.7 mph 13.4 mph 93 % 0.03 in
14:01 57.4 °F 55.4 °F 29.4 in WSW 14.1 mph 19.9 mph 94 % 0.04 in
14:06 57.2 °F 55.4 °F 29.4 in WSW 8.7 mph 19.9 mph 94 % 0.04 in
14:11 57.2 °F 55.4 °F 29.4 in SW 10.5 mph 19 mph 94 % 0.05 in
14:16 57.6 °F 57.2 °F 29.4 in WSW 10.1 mph 10.5 mph 96 % 0.05 in
14:21 57.6 °F 57.2 °F 29.4 in WSW 8.1 mph 13.2 mph 96 % 0.05 in
14:26 57.7 °F 57.2 °F 29.4 in SSW 11.9 mph 13.2 mph 96 % 0.05 in
14:31 57.6 °F 57.2 °F 29.4 in SW 10.1 mph 13 mph 96 % 0.06 in
14:36 57.6 °F 57.2 °F 29.4 in WSW 9.4 mph 11 mph 96 % 0.05 in
14:41 57.6 °F 57.2 °F 29.4 in SSW 9.8 mph 11 mph 96 % 0.05 in
14:46 57.4 °F 57.2 °F 29.4 in WSW 13.2 mph 17.2 mph 96 % 0.06 in
14:51 57.4 °F 57.2 °F 29.4 in SW 10.1 mph 17.2 mph 96 % 0.06 in
14:57 57.4 °F 57.2 °F 29.4 in SW 7.8 mph 15.4 mph 96 % 0.06 in
15:02 56.8 °F 55.4 °F 29.4 in West 6.7 mph 13 mph 97 % 0.06 in
15:07 56.8 °F 55.4 °F 29.4 in SSW 7.6 mph 10.7 mph 97 % 0.06 in
15:12 56.8 °F 55.4 °F 29.4 in WSW 12.1 mph 12.1 mph 97 % 0.06 in
15:17 56.8 °F 55.4 °F 29.4 in SW 5.6 mph 12.1 mph 97 % 0.07 in
15:18 56.8 °F 55.4 °F 29.4 in WSW 8.5 mph 14.8 mph 97 % 0.07 in
15:23 57.4 °F 57.2 °F 29.4 in SSW 8.1 mph 14.8 mph 98 % 0.07 in
15:28 57.2 °F 57.2 °F 29.4 in SW 5.6 mph 12.3 mph 98 % 0.1 in
15:33 57 °F 57.2 °F 29.4 in SW 5.6 mph 10.1 mph 98 % 0.15 in
15:39 57 °F 57.2 °F 29.4 in WSW 5.6 mph 10.1 mph 98 % 0.17 in
15:44 57 °F 57.2 °F 29.4 in SSW 7.4 mph 8.7 mph 98 % 0.21 in
15:49 57 °F 57.2 °F 29.4 in WSW 4.3 mph 10.5 mph 98 % 0.22 in
15:54 57 °F 57.2 °F 29.4 in SSW 8.5 mph 12.5 mph 98 % 0.22 in
15:59 57.2 °F 57.2 °F 29.4 in SSW 7.4 mph 14.8 mph 98 % 0.22 in
16:04 57.4 °F 57.2 °F 29.4 in SSW 11 mph 17.4 mph 98 % 0.2 in
16:09 57.4 °F 57.2 °F 29.4 in SW 10.7 mph 17.4 mph 98 % 0.2 in
16:14 57.6 °F 57.2 °F 29.4 in West 7.6 mph 15.4 mph 98 % 0.19 in
16:19 57.9 °F 57.2 °F 29.4 in WSW 11.4 mph 15.2 mph 98 % 0.19 in
16:24 57.9 °F 57.2 °F 29.4 in SSW 10.5 mph 17 mph 98 % 0.19 in
16:29 57.7 °F 57.2 °F 29.4 in SSW 8.5 mph 17 mph 98 % 0.16 in
16:34 57.7 °F 57.2 °F 29.4 in SW 6.5 mph 13.4 mph 98 % 0.15 in
16:36 57.7 °F 57.2 °F 29.4 in SSW 8.1 mph 13.4 mph 98 % 0.12 in
16:41 57.7 °F 57.2 °F 29.4 in WSW 10.1 mph 12.1 mph 98 % 0.1 in
16:46 57.9 °F 57.2 °F 29.4 in South 11 mph 12.1 mph 98 % 0.06 in
16:51 57.9 °F 57.2 °F 29.4 in SW 7.4 mph 11 mph 98 % 0.06 in
16:56 58.1 °F 59 °F 29.4 in South 8.5 mph 10.7 mph 98 % 0.1 in
17:01 58.1 °F 59 °F 29.4 in SSW 5.6 mph 10.7 mph 98 % 0.1 in
17:06 58.5 °F 59 °F 29.4 in SW 7.2 mph 12.3 mph 98 % 0.1 in
17:11 58.6 °F 59 °F 29.4 in SSW 6.5 mph 12.3 mph 98 % 0.1 in
17:16 58.6 °F 59 °F 29.4 in SSW 7.6 mph 10.7 mph 98 % 0.12 in
17:21 61 °F 60.8 °F 29.4 in SW 9.6 mph 10.7 mph 98 % 0.13 in
17:26 61.7 °F 62.6 °F 29.4 in WSW 7.6 mph 14.5 mph 98 % 0.13 in
17:31 61.3 °F 60.8 °F 29.4 in SW 10.5 mph 14.5 mph 97 % 0.1 in
17:36 60.4 °F 59 °F 29.4 in SW 7.8 mph 11.9 mph 96 % 0.1 in
17:41 59.7 °F 59 °F 29.4 in WSW 10.7 mph 12.3 mph 96 % 0.1 in
17:46 59.7 °F 59 °F 29.4 in SW 8.7 mph 15.2 mph 96 % 0.1 in
17:51 59.4 °F 59 °F 29.4 in WSW 6.5 mph 15.2 mph 96 % 0.1 in
17:56 59.2 °F 59 °F 29.4 in WSW 6 mph 13.2 mph 96 % 0.06 in
18:01 59.2 °F 59 °F 29.4 in WSW 11 mph 13.6 mph 96 % 0.09 in
18:06 59.5 °F 59 °F 29.4 in WSW 5.8 mph 13.6 mph 97 % 0.13 in
18:11 60.3 °F 59 °F 29.4 in WSW 10.7 mph 13.6 mph 97 % 0.12 in
18:16 60.1 °F 59 °F 29.4 in WSW 12.3 mph 12.5 mph 97 % 0.11 in
18:21 59.7 °F 59 °F 29.4 in SSW 7.6 mph 12.5 mph 96 % 0.11 in
18:27 59.5 °F 59 °F 29.4 in WSW 5.8 mph 12.3 mph 96 % 0.13 in
18:32 59.5 °F 59 °F 29.4 in WSW 9.8 mph 12.3 mph 96 % 0.13 in
18:37 59.5 °F 59 °F 29.4 in WSW 8.1 mph 15.2 mph 96 % 0.13 in
18:42 59.7 °F 59 °F 29.4 in SSW 11 mph 15.2 mph 96 % 0.13 in
18:47 59.7 °F 59 °F 29.4 in West 6.3 mph 13.4 mph 96 % 0.12 in
18:52 59.7 °F 59 °F 29.4 in WSW 14.8 mph 14.8 mph 96 % 0.13 in
18:57 59.7 °F 59 °F 29.4 in SSW 9.6 mph 14.8 mph 96 % 0.12 in
19:02 59.4 °F 59 °F 29.4 in WSW 7.2 mph 14.8 mph 95 % 0.09 in
19:07 59.2 °F 57.2 °F 29.4 in WSW 8.7 mph 12.3 mph 95 % 0.05 in
19:12 59.2 °F 57.2 °F 29.4 in WSW 6 mph 10.1 mph 95 % 0.05 in
19:17 59.2 °F 57.2 °F 29.4 in WSW 7.8 mph 9.8 mph 95 % 0.04 in
19:22 59 °F 57.2 °F 29.4 in SSW 7.4 mph 11 mph 95 % 0.04 in
19:27 59 °F 57.2 °F 29.4 in WNW 8.5 mph 13.2 mph 95 % 0.01 in
19:32 59 °F 57.2 °F 29.4 in WSW 6.3 mph 13.2 mph 95 % 0.01 in
19:37 59 °F 57.2 °F 29.4 in WSW 5.6 mph 10.5 mph 95 % 0.03 in
19:42 58.8 °F 59 °F 29.4 in SW 6.5 mph 12.3 mph 96 % 0.03 in
19:47 58.8 °F 59 °F 29.4 in WSW 6.5 mph 12.3 mph 96 % 0.03 in
19:52 58.5 °F 57.2 °F 29.4 in WSW 5.6 mph 8.9 mph 96 % 0.02 in
19:57 58.5 °F 57.2 °F 29.4 in WSW 8.1 mph 8.9 mph 96 % 0.02 in
20:02 58.5 °F 57.2 °F 29.5 in SW 7.2 mph 8.5 mph 96 % 0.02 in
20:07 57.9 °F 57.2 °F 29.5 in WSW 8.1 mph 8.5 mph 96 % 0.02 in
20:12 57.9 °F 57.2 °F 29.5 in South 4.3 mph 9.8 mph 97 % 0.02 in
20:17 57.9 °F 57.2 °F 29.5 in WSW 3.6 mph 9.8 mph 97 % 0.02 in
20:22 57.9 °F 57.2 °F 29.5 in SW 7.8 mph 11.9 mph 97 % 0.02 in
20:24 57.9 °F 57.2 °F 29.5 in SSW 5.4 mph 11.9 mph 97 % 0.02 in
20:29 57.9 °F 57.2 °F 29.5 in SSW 4.5 mph 11.9 mph 97 % 0.03 in
20:34 57.7 °F 57.2 °F 29.5 in Calm   11 mph 97 % 0.02 in
20:39 57.7 °F 57.2 °F 29.5 in SSW 8.5 mph 10.3 mph 97 % 0.01 in
20:44 57.6 °F 57.2 °F 29.5 in SSW 6.3 mph 11.4 mph 97 % 0.01 in
20:49 57.6 °F 57.2 °F 29.5 in SSW 4.3 mph 11.4 mph 97 % 0.01 in
20:54 57.4 °F 57.2 °F 29.5 in SSW 6.5 mph 9.8 mph 97 % 0.01 in
20:59 57.4 °F 57.2 °F 29.5 in SW 8.1 mph 8.7 mph 97 % 0.01 in
21:04 57.4 °F 57.2 °F 29.5 in SW 7.6 mph 8.9 mph 97 % 0.01 in
21:09 57.4 °F 57.2 °F 29.5 in SW 6.3 mph 11.9 mph 97 % 0.01 in
21:14 57.2 °F 57.2 °F 29.5 in SSW 5.6 mph 11.9 mph 98 % 0.01 in
21:19 57.4 °F 57.2 °F 29.5 in SSW 5.8 mph 12.3 mph 98 % 0.01 in
21:24 57.4 °F 57.2 °F 29.5 in WSW 8.1 mph 12.3 mph 98 % 0.01 in
21:25 57.4 °F 57.2 °F 29.5 in WSW 10.5 mph 10.5 mph 98 % 0 in
21:31 57.2 °F 57.2 °F 29.5 in SSW 4.7 mph 11 mph 98 % 0.04 in
21:36 57.2 °F 57.2 °F 29.5 in South 7.8 mph 11 mph 98 % 0.05 in
21:41 57.2 °F 57.2 °F 29.5 in SSW 3.6 mph 12.3 mph 98 % 0.05 in
21:46 57.2 °F 57.2 °F 29.5 in SSW 7.2 mph 12.8 mph 98 % 0.06 in
21:51 56.8 °F 57.2 °F 29.5 in WSW 5.6 mph 12.8 mph 98 % 0.06 in
21:56 56.8 °F 57.2 °F 29.5 in WSW 10.5 mph 10.5 mph 98 % 0.06 in
22:01 56.8 °F 57.2 °F 29.5 in WSW 6.5 mph 10.7 mph 98 % 0.06 in
22:06 56.8 °F 57.2 °F 29.5 in SSW 9.6 mph 10.7 mph 98 % 0.07 in
22:11 56.7 °F 57.2 °F 29.5 in SW 8.7 mph 10.1 mph 98 % 0.07 in
22:16 56.7 °F 57.2 °F 29.5 in WSW 6.3 mph 8.7 mph 98 % 0.07 in
22:21 56.7 °F 57.2 °F 29.5 in SW 8.7 mph 8.7 mph 98 % 0.07 in
22:26 56.7 °F 57.2 °F 29.5 in SW 8.1 mph 11 mph 98 % 0.07 in
22:31 56.7 °F 57.2 °F 29.5 in SSW 9.8 mph 11 mph 98 % 0.03 in
22:36 56.7 °F 57.2 °F 29.5 in SW 11.4 mph 11.4 mph 98 % 0.02 in
22:41 56.8 °F 57.2 °F 29.5 in West 5.6 mph 11.4 mph 98 % 0.02 in
22:42 56.8 °F 57.2 °F 29.5 in West 5.6 mph 11.4 mph 98 % 0.01 in
22:47 56.8 °F 57.2 °F 29.5 in SW 8.5 mph 11.4 mph 98 % 0.01 in
22:52 56.8 °F 57.2 °F 29.5 in SW 10.1 mph 10.1 mph 98 % 0.03 in
22:57 56.8 °F 57.2 °F 29.5 in SW 6.3 mph 11.4 mph 98 % 0.05 in
23:02 56.7 °F 57.2 °F 29.5 in SSW 5.8 mph 11.4 mph 98 % 0.03 in
23:07 56.5 °F 57.2 °F 29.5 in WSW 7.6 mph 10.7 mph 98 % 0.03 in
23:12 56.5 °F 57.2 °F 29.5 in SSW 5.8 mph 8.7 mph 98 % 0.03 in
23:17 56.3 °F 57.2 °F 29.5 in SSW 6.3 mph 10.5 mph 98 % 0.03 in
23:22 56.3 °F 57.2 °F 29.5 in SW 5.8 mph 10.5 mph 98 % 0.03 in
23:27 56.1 °F 55.4 °F 29.5 in SSW 5.6 mph 8.5 mph 98 % 0.03 in
23:32 56.1 °F 55.4 °F 29.5 in West 5.4 mph 8.5 mph 98 % 0.03 in
23:37 56.1 °F 55.4 °F 29.5 in SSW 3.6 mph 8.5 mph 98 % 0.03 in
23:42 56.1 °F 55.4 °F 29.5 in SSW 5.6 mph 7.4 mph 98 % 0.03 in
23:47 56.1 °F 55.4 °F 29.5 in SSW 7.4 mph 9.8 mph 98 % 0.03 in
23:52 56.1 °F 55.4 °F 29.5 in SSW 5.8 mph 9.8 mph 98 % 0.01 in
23:57 56.1 °F 55.4 °F 29.5 in WSW 6.3 mph 7.8 mph 98 % 0 in
Le Gheer Warneton
Courtoisie de Weather Underground - 2.25 mb

Mise a jour : 18/12/2017 17:39:11
Généré par Cumulus 1.9.4 (1099)